Regional Weather Roundup
Issued by NWS Charleston, SC

Current Version | Previous Version | Text Only | Print | Product List | Glossary Off
Versions: 1 2 3 4 5 6 7 8 9 10 11 12 13 14 15 16 17 18 19 20 21 22 23 24 25 26 27 28 29 30 31 32 33 34 35 36 37 38 39 40 41 42 43 44 45 46 47 48 49 50

518
ASUS42 KCHS 200927
RWRCHS

REGIONAL WEATHER ROUNDUP
NATIONAL WEATHER SERVICE CHARLESTON SC
500 AM EDT SUN AUG 20 2017

NOTE: "FAIR" INDICATES FEW OR NO CLOUDS BELOW 12,000 FEET WITH NO
SIGNIFICANT WEATHER AND/OR OBSTRUCTIONS TO VISIBILITY.

NOT ALL STATIONS ARE QUALITY CONTROLLED. USE DATA WITH CAUTION...
ESPECIALLY DEWPOINT OBSERVATIONS.

SCZ027-030-031-034>040-042>050-201000-
...SOUTHEAST SOUTH CAROLINA...

CITY           SKY/WX    TMP DP  RH WIND       PRES   REMARKS
N CHARLESTON   PTCLDY    80  79  96 CALM      29.99S
WATERFRONT PRK   N/A     82  80  94 CALM      29.83S HX  94
JOHNS ISLAND   FAIR      81  79  94 CALM      30.00R
PINOPOLIS        N/A     81  81 100 SW7       29.93S HX  91
MONCKS CORNER    N/A     75  75 100 CALM      30.00S FOG
SUMMERVILLE    FOG       75  75 100 CALM      30.01S VSB 1/4
BEAUFORT MCAS  MOCLDY    80  80 100 CALM      29.99S
BEAUFORT ARPT  FAIR      81  77  89 CALM      29.99R
HILTON HEAD IS PTCLDY    79  77  94 CALM      30.00S
WALTERBORO     MOSUNNY   75  73  94 CALM      30.01R
ALLENDALE      NOT AVBL

...SOUTHERN MIDLANDS AND PEE DEE...

CITY           SKY/WX    TMP DP  RH WIND       PRES   REMARKS
GEORGETOWN     FAIR      77  77 100 CALM      30.01S
KINGSTREE      FAIR      73  72  94 CALM      30.00S FOG
ORANGEBURG     PTCLDY    73  71  93 CALM      30.00S
BARNWELL       FAIR      72  72 100 CALM      30.01S
AIKEN          FAIR      70  68  94 CALM      30.05S
MANNING        FAIR      75  73  94 CALM      30.00S
COLUMBIA       CLEAR     75  70  84 S3        30.00R
SUMTER         CLEAR     74  68  80 CALM      29.98R
FLORENCE       PTCLDY    76  76 100 CALM      30.00S
MYRTLE BEACH   NOT AVBL
N MYRTLE BEACH CLEAR     80  80 100 SW5       30.00R

$$

GAZ063-065-086>088-099>101-113>116-118-119-134>141-150-201000-
...SOUTHEAST GEORGIA...

CITY           SKY/WX    TMP DP  RH WIND       PRES   REMARKS
SAVANNAH ARPT  CLEAR     79  76  90 CALM      30.00R
HUNTER AAF     CLEAR     78  76  94 CALM      29.97R
FORT STEWART   PTCLDY    76  73  92 CALM      29.97S
STATESBORO     PTCLDY    75  74  98 CALM      30.00S
SYLVANIA       MOSUNNY   73  73 100 CALM      30.01S FOG
CLAXTON        FAIR      73  73  97 CALM      29.99S

...CSRA...CENTRAL AND FAR SOUTHEAST GEORGIA...

CITY           SKY/WX    TMP DP  RH WIND       PRES   REMARKS
THOMSON        CLEAR     69  68  96 NW3       30.07S
AUGUSTA-BUSH   CLEAR     73  70  90 CALM      30.00R
AUGUSTA-DANIEL CLEAR     78  68  71 CALM      30.02R
SWAINSBORO     FAIR      70  70 100 CALM      30.01S
VIDALIA        PTCLDY    73  72  94 CALM      30.00S
EASTMAN        FAIR      70  70 100 CALM      30.03R
HAZLEHURST     FAIR      75  68  78 CALM      29.99S
ALMA           CLEAR     76  73  91 CALM      29.99R
WAYCROSS       CLEAR     76  73  90 CALM      30.00R
JESUP          FAIR      77  73  88 CALM      30.00S
BAXLEY         FAIR      72  72 100 CALM      29.99S
BRUNSWICK      CLEAR     77  72  83 CALM      30.01R
SAINT SIMONS   PTCLDY    80  76  87 SW6       29.99R

$$

SCZ027-028-034-036>038-045-046-048>050-GAZ119-141-201000-
...LAKE AND SUPPLEMENTAL COASTAL OBSERVATIONS...

STATION/POSITION TIME  TEMP    WIND        PRES    WAVE   SWELL
                       AIR SEA DIR/SP/G            HT/PER HT/PER/DIR
                 (UTC) (F)     (DEG/KT/KT) (MB)    (FT/S) (FT/S/D)
WINYAH BAY       0845   80     270/  4     1016.0S
LAKE MURRAY      0850   77      CALM  /  1 1015.2R
ACE BASIN NERRS  0845   79        CALM     1016.0S
FORT PULASKI     0900   82 87  260/  2/  3 1016.1
SAPELO ISLAND    0900   81        CALM     1016.0

$$

ANZ835-935-AMZ111-154-330-350-352-354-370-450-454-472-201000-
...C-MAN AND BUOY OBSERVATIONS...

STATION/POSITION TIME  TEMP    WIND        PRES    WAVE   SWELL
                       AIR SEA DIR/SP/G            HT/PER HT/PER/DIR
                 (UTC) (F)     (DEG/KT/KT) (MB)    (FT/S) (FT/S/D)
BUOY 41004       0910   84 84  230/ 12/ 14 1015.2
BUOY 41008       0850   85 85  180/ 14/ 16 1015.0R   3/ 8   2/ 80/ 8
FOLLY BEACH CMAN 0900   84     220/  9/ 12 1016.3R
CAPERS NEARSHORE 0908   82 86  220/ 10/ 16 1015.4S
FRIPP NEARSHORE  0908   82     150/ 10/ 14 1015.5R


STATION/POSITION TIME  TEMP    WIND        PRES    WAVE   SWELL
                       AIR SEA DIR/SP/G            HT/PER HT/PER/DIR
                 (UTC) (F)     (DEG/KT/KT) (MB)    (FT/S) (FT/S/D)
5E ST. MARYS GA  0830      84                N/A     3/ 8
FRYING PAN BUOY  0910   84 84  230/ 12/ 14 1015.8
BUOY 41025       0850   82 83  280/  8/ 10 1015.7F   3/ 9   3/110/ 9
CAPE LOOKOUT NC  0900   77     250/ 12/ 17 1015.7R
BUOY 41002       0850   83 84  190/ 10/ 12 1017.6R   3/ 9   3/ 90/ 9
BUOY 41010       0910   83 85  140/  8/ 10 1015.6
ST AUGUSTINE FL  0900   80 81  190/  6/  7 1015.8R


$$




USA.gov is the U.S. government's official web portal to all federal, state and local government web resources and services.